Погода Теплый Ключ

Погода Теплый Ключ : погода сейчас, прогноз погоды и архив. Всё, что Вы хотите узнать о погоде Теплый Ключ!

Хотите узнать прогноз погоды Теплый Ключ? Тогда Вам сюда: Погода Теплый Ключ

Поиск расширенной информации на нашем сайте:

Полезная информация: Самая актуальная информация колодец под ключ цена в Орехово-Зуевском районе тут.

Другие новости

Новости СМИ2

Главная страница сайта

Новости сайта

03.07.2017

Напоминаем, что на нашем специализированном сайте Метеоцентр.Азия вы можете получить высокодетализированные автоматические прогнозы погоды по пунктам России, СНГ и мира в авиационном формате (включающие направление и скорость ветра, видимость, явления погоды, количество и форму облачности, нижнюю и верхнюю границу облачности).

Рекомендуем: Реплика наручных часов купить копии реплики мужских наручных.

Погода Теплый Ключ - сегодня

Время (UTC), дата Ветер
(°,м/с) 
Видим.   Явления Облачность Т
(°С)
Тd
(°С)
f(%) Тe
(°С)
Pmin
(гПа)
dP
(гПа)
Po
(мм)
O2
(г/м3)
Тmin Tmax R s Состояние
почвы
21 20.09.17 260 (З) 10 км  слаб. ливневой дождь со снегом  10/10 660 м кучево-дожд. 
[Cb calv]
+0.2 -0.2 97 +1  1011.4  -0.1  732  295  +0.1      влажная 
00 21.09.17 270 (З) 4000 м  слаб. ливневой снег  10/10 600 м кучево-дожд. 
[Cb calv]
+0.6 +0.3 98 1011.8  0.4  732  294           
03 21.09.17 320 (СЗ) 10 км  слаб. ливневой дождь со снегом  10/10 630 м кучево-дожд. 
[Cb calv]
+2.1 +0.2 87 +3  1012.1  0.4  732  293           
06 21.09.17 220 (ЮЗ) 10 км  слаб. ливневой дождь со снегом  10/10 500 м кучево-дожд. 
[Cb calv]
+3.5 +1.2 85 +4  1012.4  0.6  733  291           
12 21.09.17 тихо ()   н/о    н/о 
-0.4 -0.6 99 -0  1014.2  734  296           
15 21.09.17 080 (В) н/о    н/о 
-1.3 -1.5 99 -1  1014.7  0.4  734  297           
18 21.09.17 тихо ()   н/о    н/о 
-1.3 -1.4 99 -1  1014.4  -0.3  734  297           
21 21.09.17 070 (В) 10 км    10/10 600 м кучево-дожд. 
[Cb calv]
-1.3 -1.9 96 -1  1015.1  0.6  734  297  -1.9    0.4    влажная 
00 22.09.17 080 (В) 10 км  слаб. ливневой снег  10/10 600 м кучево-дожд. 
[Cb calv]
+0.5 -0.1 96 +1  1015.3  0.5  735  295           
03 22.09.17 140 (ЮВ) 20000 м  {ливн. осадки}  9/9 800 м кучево-дожд. 
[Cb calv]
+4 +0.6 78 +5  1014.6  -0.2  734  292           
06 22.09.17 070 (В) 20000 м  в посл. час ливневой снег  9/9 700 м кучево-дожд. 
[Cb calv]
+4.1 +2.3 88 +5  1014.5  -0.1  734  291           
09 22.09.17 310 (СЗ) 20000 м    4/4 600 м кучево-дожд. 
[Cb calv]
+1.1 -0.9 86 +2  1015.2  0.3  735  295    +5.6  0.2     
12 22.09.17 тихо ()   н/о    н/о 
-1.9 -2.1 99 -2  1015.8  0.2  735  298           
15 22.09.17 тихо ()   н/о    н/о 
-2.7 -2.8 99 -3  1015.2  -0.7  734  299           
18 22.09.17 120 (ЮВ) н/о    н/о 
-2.6 -2.9 98 -2  1015.5  0.3  734  299           
21 22.09.17 130 (ЮВ) 20000 м    8/0 верхняя 
[Ci fib]
-2.9 -3.2 98 -2  1015.7  0.2  735  300  -3        замёрзшая 
00 23.09.17 080 (В) н/о    н/о 
-1.6 -1.8 99 -3  1014.9  -0.6  734  298           
03 23.09.17 160 (Ю) н/о    н/о 
+1.6 +1.3 98 +2  1013.9  -0.6  734  294           
06 23.09.17 тихо ()   н/о    н/о 
+9.8 +1.1 55 +10  1011.6  -1.2  733  285           
09 23.09.17 340 (С) н/о    н/о 
+4.5 +1.5 81 +5  1011.4  -0.8  732  290    +10.3       
12 23.09.17 090 (В) н/о    н/о 
-2.1 -2.3 99 -2  1012.4  0.1  732  298           
15 23.09.17 090 (В) н/о    н/о 
+0 -0.6 96 -1  1011.5  0.1  732  295           
18 23.09.17 080 (В) н/о    н/о 
+1.6 -0.3 87 +1  1011.2  0.1  732  293           
21 23.09.17 100 (В) 20000 м    ясно 
[]
+2.1 -0.4 84 +1  1011.1  -0.7  732  293  -2.1        замёрзшая 
00 24.09.17 100 (В) н/о    н/о 
+10.3 +1 52 +10  1009.5  -0.4  731  284           
Время (UTC), дата Ветер
(°,м/с) 
Видим.   Явления Облачность Т
(°С)
Тd
(°С)
f(%) Тe
(°С)
Pmin
(гПа)
dP
(гПа)
Po
(мм)
O2
(г/м3)
Тmin Tmax R s Состояние
почвы

Для получения пояснительной информации подведите курсор к названию столбца.

ПОГОДА Теплый Ключ - архив

Всё, что Вы хотите узнать о погоде Теплый Ключ - удобно и подробно!

Выберите нужную дату (начиная с 1 января 2015* года) и нажмите кнопку "Найти".
Будут отображены архивные сводки погоды по пункту Теплый Ключ, начиная с указанной даты.


Отображать данные в формате CSV (для использования в таблицах Excel)


Внимание! Наш архив погоды предназначен исключительно для личного некоммерческого использования в познавательных целях. Если Вам необходимы официальные справки о состоянии погоды (для производственных, юридических, коммерческих и т.п. целей), обращайтесь в органы Росгидромета.

*Примечание: данная дата относится к архиву по метеостанциям СССР (Россия, СНГ, Балтия).
Архив по метеостанциям Зарубежной Европы и Азии (кроме Китая) хранится 10 дней, по другим регионам земного шара (Китай, Африка, Америка, Австралия, Океания) - 1 день.

Теплый Ключ - район местоположения метеостанции


Название, широта, долгота, высота метеостанции:
Теплый Ключ 62.8°ш. 136.8°д. 289 м над ур. моря [Российская Федерация]

Дополнительная информация

В oтличие oт бoльшинства пoгoдных сайтoв мы публикуем пoдрoбную метеoинфoрмацию в детальнoм прoфессиoнальнoм фoрмате.

Характеристики температуры и влажнoсти вoздуха измеряются на высoте 2 м в тени вдали oт зданий и деревьев.
Скoрoсть ветра измеряется на высoте 10 м (на урoвне рoста челoвека скoрoсть ветра ниже в 1.5-2 раза). Если метеoстанция нахoдится в гoрoде или в лесу, тo скoрoсть ветра занижена на 2-4 м/с пo сравнению с oткрытым местoм. Скoрoсть ветра над акватoриями крупных рек и oзёр, а также на вершинах хoлмoв на 2-5 м/с выше, чем в oбычных услoвиях.
Атмoсфернoе давление в разных тoчках местнoсти мoжет значительнo oтличаться oт давления на метеoстанции, в зависимoсти oт услoвий рельефа (при пoдъёме на 10 м давление пoнижается примернo на 1 мм рт.ст.).